IW1CGW-23 Weather Reports


Display with metric or nautical units.
time (UTC)temp
F
wind
direction
speed
MPH
gust
MPH
rain 1hr
in
rain 24hr
in
rain mn
in
humidity
%
barometer
mb
20260507132051 66 0.0 0.0 0.00 0.00 0.00 74 1014.5
20260507124141 65 0.0 0.0 0.00 0.00 0.00 76 1014.4
20260507120231 65 0.0 0.0 0.00 0.00 0.00 75 1014.1
20260507113622 66 0.0 0.0 0.00 0.00 0.00 74 1014.1
20260507105705 68 0.0 0.0 0.00 0.00 0.00 72 1014.4
20260507103054 69 0.0 0.0 0.00 0.00 0.00 71 1014.4
20260507101748 69 0.0 0.0 0.00 0.00 0.00 71 1014.3
20260507100442 69 0.0 0.0 0.00 0.00 0.00 70 1014.4
20260507095137 69 0.0 0.0 0.00 0.00 0.00 70 1014.4
20260507084607 70 0.0 0.0 0.00 0.00 0.00 68 1014.0
20260507081955 71 0.0 0.0 0.00 0.00 0.00 67 1013.7
20260507074042 69 0.0 0.0 0.00 0.00 0.00 68 1013.7
20260507071428 74 0.0 0.0 0.00 0.00 0.00 64 1013.5
20260507064816 68 0.0 0.0 0.00 0.00 0.00 69 1013.4
20260507063507 66 0.0 0.0 0.00 0.00 0.00 71 1013.2
20260507054250 61 0.0 0.0 0.00 0.00 0.00 79 1012.7
20260507052953 59 0.0 0.0 0.00 0.00 0.00 81 1012.6
20260507051651 58 0.0 0.0 0.00 0.00 0.00 83 1012.4
20260507050343 56 0.0 0.0 0.00 0.00 0.00 85 1012.1
20260507045042 55 0.0 0.0 0.00 0.00 0.00 86 1012.0
20260507041141 53 0.0 0.0 0.00 0.00 0.00 86 1011.9
20260507035841 53 0.0 0.0 0.00 0.00 0.00 85 1011.9
20260507031940 53 0.0 0.0 0.00 0.00 0.00 85 1011.7
20260507030640 54 0.0 0.0 0.00 0.00 0.00 85 1011.8
20260507024039 54 0.0 0.0 0.00 0.00 0.00 85 1011.6
20260507020138 54 0.0 0.0 0.00 0.00 0.00 85 1011.3
20260507012236 55 0.0 0.0 0.00 0.00 0.00 85 1011.1
20260507010941 55 0.0 0.0 0.00 0.00 0.00 85 1011.0
20260507005635 55 0.0 0.0 0.00 0.00 0.00 85 1011.1
20260507003034 55 0.0 0.0 0.00 0.00 0.00 85 1011.1
20260506235132 56 0.0 0.0 0.00 0.00 0.00 85 1011.1
20260506233832 56 0.0 0.0 0.00 0.00 0.00 85 1011.1
20260506231230 56 0.0 0.0 0.00 0.00 0.00 85 1011.2
20260506225953 56 0.0 0.0 0.00 0.00 0.00 85 1011.2
20260506224629 56 0.0 0.0 0.00 0.00 0.00 85 1011.2
20260506222026 56 0.0 0.0 0.00 0.00 0.00 85 1011.1
20260506215425 57 0.0 0.0 0.00 0.00 0.00 84 1011.1
20260506212822 57 0.0 0.0 0.00 0.00 0.00 83 1011.2
20260506204918 59 0.0 0.0 0.00 0.00 0.00 82 1011.1
20260506202314 61 0.0 0.0 0.00 0.00 0.00 81 1010.8
20260506195711 62 0.0 0.0 0.00 0.00 0.00 80 1010.6
20260506194409 62 0.0 0.0 0.00 0.00 0.00 80 1010.6
20260506191804 62 0.0 0.0 0.00 0.00 0.00 79 1010.0
20260506185200 62 0.0 0.0 0.00 0.00 0.00 78 1009.6
20260506181253 63 0.0 0.0 0.00 0.00 0.00 76 1009.3
20260506175950 63 0.0 0.0 0.00 0.00 0.00 76 1009.3
20260506174648 63 0.0 0.0 0.00 0.00 0.00 76 1009.3
20260506173345 64 0.0 0.0 0.00 0.00 0.00 75 1009.1
20260506170738 64 0.0 0.0 0.00 0.00 0.00 75 1009.1
20260506164137 65 0.0 0.0 0.00 0.00 0.00 74 1009.2
20260506162830 65 0.0 0.0 0.00 0.00 0.00 74 1009.2
20260506153620 66 0.0 0.0 0.00 0.00 0.00 72 1009.1
20260506151007 67 0.0 0.0 0.00 0.00 0.00 73 1009.2
20260506144359 67 0.0 0.0 0.00 0.00 0.00 73 1009.3
20260506143056 67 0.0 0.0 0.00 0.00 0.00 74 1009.3
20260506141752 67 0.0 0.0 0.00 0.00 0.00 74 1009.4